Wetterstation Rossbuehl

Aktuelle Werte gibts auch unter Tel. 01577 4719248

Zugriff auf die letzten 10 Werte 30 Werte 100 Werte 400 Werte

Datum_____UhrzeitWind
Mittel
Wind
min
Wind
Boe
Wind
BoeTag
Wind
Richtung
Temp1
Feuchte Station Power
type
BatterieInter
vall
SMS
JJJJ-MM-TT hh:mmkm/hmin SpitzePeak Grad °C % ID Ex.oBat Volt min St.
2018-12-06 15:01 14 11 22 29 225 8.6 3 oppwest B 11.00 4 20
2018-12-06 14:56 14 7 22 29 230 8.7 3 oppwest B 11.00 4 20
2018-12-06 14:52 18 7 22 29 225 8.7 3 oppwest B 11.00 4 20
2018-12-06 14:48 14 7 25 29 220 8.6 3 oppwest B 11.00 4 20
2018-12-06 14:44 14 11 22 29 220 8.6 3 oppwest B 11.00 4 20
2018-12-06 14:40 14 4 22 29 220 8.6 3 oppwest B 11.00 4 20
2018-12-06 14:36 18 11 25 29 220 8.6 3 oppwest B 11.00 4 20
2018-12-06 14:32 14 4 18 29 215 8.6 3 oppwest B 11.10 4 20
2018-12-06 14:28 11 4 14 29 220 8.6 3 oppwest B 11.10 4 20
2018-12-06 14:24 11 4 18 29 220 8.5 3 oppwest B 11.20 4 20
2018-12-06 14:20 11 7 18 29 205 8.4 3 oppwest B 11.30 4 20
2018-12-06 14:16 11 7 22 29 205 8.5 3 oppwest B 11.40 4 20
2018-12-06 14:12 14 7 25 29 200 8.4 3 oppwest B 12.20 4 20
2018-12-06 14:08 14 4 25 29 175 8.3 3 oppwest B 11.80 4 20
2018-12-06 14:04 11 7 22 29 205 8.4 3 oppwest B 11.00 4 20
2018-12-06 14:00 14 7 22 29 220 8.3 4 oppwest B 11.00 4 20
2018-12-06 13:56 14 7 22 29 225 8.4 4 oppwest B 11.00 4 20
2018-12-06 13:52 14 7 22 29 230 8.3 4 oppwest B 11.00 4 20
2018-12-06 13:48 14 7 22 29 230 8.2 4 oppwest B 11.00 4 20
2018-12-06 13:44 14 7 22 29 225 8.3 4 oppwest B 11.00 4 20